Location: Balch Springs
(32.7287°N, 96.6228°W)
Time: 02:03:57
(UTC+00:00)

Daily predictions for brighter satellites

Satellite Brightness Start Highest point End
(mag) Time Altitude Azimuth Time Altitude Azimuth Time Altitude Azimuth
Cosmos 2034 Rocket 4.0 01:45:58 10° N 01:52:12 71° E 01:58:27 10° SSE
NOSS 3-4 (A) 3.3 01:48:39 10° SSW 01:54:23 74° ESE 02:00:21 10° NE
NOSS 3-4 (C) 3.3 01:48:46 10° SSW 01:54:29 73° ESE 02:00:26 10° NE
OBJECT-B 1.3 01:56:14 10° SE 01:59:13 38° ENE 02:02:14 10° N
SAR-Lupe-1 4.3 01:56:04 10° NNE 01:59:31 45° E 02:02:57 10° S
SAR-Lupe-4 4.0 01:56:33 10° NNE 01:59:56 39° E 02:03:18 10° S
Cosmos 405 Rocket 2.7 01:56:52 10° S 02:00:38 61° E 02:04:31 10° NNE
Atlas Centaur 2 2.7 01:58:39 10° SSW 02:01:38 19° SSE 02:04:22 10° ESE
SJ-6B 3.3 01:58:25 10° SE 02:01:54 38° ENE 02:05:23 10° N
OAO 1 Rocket 4.5 01:57:29 10° WSW 02:02:49 73° SSE 02:08:09 10° ENE
ATLAS 2AS CENTAUR R/B 3.3 01:55:33 10° S 02:02:56 47° ESE 02:10:22 10° NE
Centaur D-1AR AC-39 3.5 01:58:56 10° WSW 02:05:54 24° SSW 02:09:03 10° SE
Cosmos 1437 Rocket 4.0 02:08:06 10° NNE 02:11:17 24° ENE 02:14:11 12° SE
Resurs 01 Rocket 3.4 02:08:57 10° ESE 02:11:44 17° ENE 02:14:33 10° NNE
Cosmos 1812 Rocket 3.8 02:09:38 10° N 02:14:06 74° W 02:18:32 10° S
Cosmos 1408 2.5 02:11:06 10° S 02:14:44 76° E 02:18:22 10° N
CZ-4 R/B 4.2 02:14:11 10° SW 02:17:02 18° W 02:19:55 10° NW
Cosmos 1825 Rocket 3.6 02:14:40 10° S 02:19:01 86° W 02:23:21 10° N
RESURS DK-1 3.9 02:17:56 12° SE 02:19:53 16° ESE 02:22:30 10° ENE
OAO 3 Copernicus 4.3 02:15:37 10° WSW 02:20:39 82° SSE 02:25:41 10° ENE
Cosmos-2242 2.9 02:18:56 10° N 02:23:13 79° E 02:27:27 10° S
CENTAUR R/B 3.3 02:21:16 10° NNW 02:29:48 77° ENE 02:37:50 14° SE
Sakura Rocket 4.5 02:21:04 10° W 02:30:06 66° S 02:35:42 15° ESE
In-Cosmos 22 Rocket 4.4 02:25:41 10° SSW 02:30:57 69° W 02:36:16 10° N
USA 267 3.9 02:25:16 10° ENE 02:30:59 31° SE 02:36:39 10° S
Cosmos 44 Rocket 3.4 02:27:31 10° SSW 02:32:31 58° ESE 02:37:38 10° NE
Cosmos 1634 Rocket 4.0 02:31:02 10° N 02:37:18 74° E 02:43:30 10° SSE
Ariane Rocket 3.1 02:37:32 15° SSE 02:41:43 62° ENE 02:46:43 10° N
Helios 1A Rocket 3.4 02:37:46 10° S 02:41:44 59° W 02:45:43 10° NNW
ERS-2 2.0 02:38:45 10° NNE 02:42:24 90° WNW 02:46:01 10° SSW
IRS-1A Rocket 4.2 02:38:17 13° SSE 02:43:16 71° ENE 02:48:45 10° N
USA 238 DEB 3.9 02:37:07 10° NNW 02:44:34 89° WSW 02:50:46 17° SSE
USA 238 3.9 02:37:13 10° NNW 02:44:40 90° SE 02:50:51 17° SSE
SEDSat Delta rocket 2.8 02:43:41 10° WSW 02:47:38 56° SSE 02:49:48 25° E
Cosmos 783 Rocket 4.4 02:42:48 10° S 02:47:56 68° ESE 02:53:05 10° NNE
OAO 2 Rocket 3.5 02:44:48 10° W 02:49:50 69° N 02:53:27 18° E
CZ-2C R/B 4.3 02:48:03 10° NNE 02:52:11 35° E 02:53:39 28° SE
Cosmos 1242 Rocket 2.7 02:49:13 10° N 02:52:43 51° E 02:53:50 35° SE
EPKM 3.7 02:52:19 10° SW 02:54:42 23° S 02:55:15 23° SSE
Cosmos 2221 3.2 02:51:10 10° NNE 02:55:06 34° E 02:56:12 30° ESE
USA 307 3.0 02:51:41 10° NW 02:55:55 63° NE 02:57:40 33° ESE
MOS 1 4.3 02:51:32 14° SSE 02:56:34 84° WSW 03:02:15 10° NNW
IGS 5A 3.4 03:04:14 35° SSE 03:05:54 73° ENE 03:10:02 10° N
Hubble Space Telescope 1.1 03:02:58 10° WSW 03:06:52 42° S 03:07:16 41° SSE
Cosmos 1697 Rocket 3.1 03:01:56 10° N 03:07:22 45° ENE 03:09:29 32° ESE
Cosmos 2082 Rocket 2.1 03:02:50 10° SSW 03:08:25 76° ESE 03:14:03 10° NNE
Cosmos 1606 3.5 03:08:00 10° NNE 03:11:14 33° ENE 03:11:14 33° ENE
SPOT 3 Rocket 3.6 03:09:28 33° SE 03:11:45 63° ENE 03:16:55 10° N
Cosmos 1833 Rocket 3.8 03:06:49 10° SW 03:12:10 45° WNW 03:17:34 10° N
USA 305 2.8 03:08:25 10° NW 03:12:36 79° SW 03:13:42 48° SSE
USA 308 2.8 03:08:31 10° NW 03:12:46 88° SW 03:13:51 49° SE
Resurs 1-3 4.5 03:10:54 16° SSW 03:14:07 46° W 03:18:21 10° NNW
Cosmos 773 Rocket 4.0 03:10:24 10° SSW 03:15:38 79° WNW 03:20:51 10° NNE
BREEZE-M R/B 3.6 03:06:33 10° SSW 03:15:57 44° SE 03:17:24 33° E
Cosmos 2151 3.8 03:23:49 35° ENE 03:23:49 35° ENE 03:27:00 10° NNE
SWAS 4.4 03:23:04 10° NNW 03:27:19 76° WSW 03:28:06 57° S
Landsat 7 3.9 03:28:04 38° S 03:29:51 70° WSW 03:34:36 10° NNW
Cosmos 1092 Rocket 4.3 03:29:20 41° ESE 03:30:34 46° E 03:36:30 10° NNE
Centaur D AC-29 3.5 03:17:10 10° W 03:32:38 28° SW 03:35:11 22° S
Cosmos 2279 Rocket 4.4 03:27:26 10° NNW 03:33:30 61° W 03:37:33 22° SSW
Cosmos 1842 Rocket 3.6 03:31:10 10° N 03:35:40 77° W 03:36:31 56° SSW
GP-B 4.3 03:32:00 10° NNE 03:34:53 28° ENE 03:34:53 28° ENE
USA 306 3.5 03:32:33 10° NW 03:36:38 44° SW 03:36:55 44° SW
Meteor 2-3 Rocket 3.9 03:36:27 46° ESE 03:36:44 47° E 03:42:08 10° NNE
Cosmos 1076 Rocket 3.8 03:39:35 46° SW 03:40:41 65° W 03:44:59 10° N
ERS-1 Rocket 3.7 03:40:52 36° ENE 03:40:52 36° ENE 03:45:24 10° N
Spot 2 Rocket 3.6 03:41:46 56° E 03:42:11 58° ENE 03:47:12 10° N
Cosmos 2369 3.7 03:36:48 10° NNW 03:42:25 65° ENE 03:43:19 56° ESE
Resurs 01 Rocket 2.9 03:46:24 27° SW 03:47:54 35° W 03:51:58 10° NNW
Cosmos 2026 Rocket 4.1 03:49:08 51° ESE 03:49:46 54° E 03:55:54 10° NNE
Atlas Centaur 2 3.4 03:46:20 10° WSW 03:47:12 16° WSW 03:47:12 16° WSW
BREEZE M DEB (TANK) 3.3 03:47:45 10° WSW 03:50:27 63° NNW 04:02:09 10° ENE
Cosmos 1980 Rocket 2.3 03:47:59 10° NNW 03:53:32 57° ENE 03:53:52 56° E
ATLAS 2AS CENTAUR R/B 4.4 03:46:53 10° WSW 03:54:02 37° NW 04:01:09 10° NNE
Cosmos 1627 Rocket 4.5 03:54:37 58° SE 03:55:24 63° E 04:01:40 10° NNE
Cosmos 1538 Rocket 4.2 03:53:58 37° SW 03:55:59 68° WNW 04:01:11 10° N
Nadezhda 4 Rocket 4.4 03:52:26 23° SSW 03:56:14 58° W 04:02:20 10° N
RESURS DK-1 4.2 03:53:56 10° SW 03:57:37 30° WNW 04:01:18 10° N
Cosmos 158 Rocket 3.8 03:58:13 87° ESE 03:58:14 87° ESE 04:03:26 10° NNE
Cosmos 2322 Rocket 4.3 03:58:22 10° NNE 04:00:39 12° NE 04:00:59 12° ENE
USA 245 4.4 04:00:12 54° SSW 04:01:22 67° WSW 04:06:31 10° NNW
H-2A R/B 3.7 04:01:09 10° WSW 04:02:15 14° WSW 04:02:15 14° WSW
OAO 3 Copernicus 4.5 04:00:19 10° W 04:05:19 67° N 04:05:31 66° NNE
SPOT 1/Viking Rocket 4.3 04:09:03 41° SW 04:09:56 44° W 04:14:54 10° NNW
USA 267 3.8 04:07:41 10° NE 04:14:04 58° NW 04:20:28 10° WSW
ARIANE 5 R/B 3.2 04:16:06 56° NW 04:16:06 56° NW 04:19:44 10° NNW
ATLAS 3B R/B 3.1 04:11:58 10° NNW 04:19:01 54° ENE 04:20:00 51° E
SPOT 5 3.6 04:23:22 44° NNW 04:23:22 44° NNW 04:26:22 10° NNW
Cosmos 1428 Rocket 4.4 04:21:28 72° SW 04:22:04 79° W 04:28:13 10° N
SL-16 R/B 3.6 04:21:23 10° N 04:25:32 27° NE 04:25:32 27° NE
Terra 2.9 04:43:36 42° NNW 04:43:36 42° NNW 04:46:50 10° NNW
Cosmos 2360 Rocket 3.8 05:11:23 10° N 05:14:46 27° NNE 05:14:46 27° NNE
Cosmos 2322 Rocket 3.6 05:39:40 10° NNW 05:42:47 34° NNW 05:42:47 34° NNW
ATLAS 3B R/B 4.4 06:03:31 10° NW 06:07:15 23° W 06:07:15 23° W
SL-16 R/B 4.2 06:05:13 10° NW 06:07:23 21° NW 06:07:23 21° NW
Cosmos 2219 Rocket 3.9 06:08:14 10° N 06:11:15 27° NNE 06:11:15 27° NNE
COSMOS 2455 4.2 06:27:36 36° N 06:27:36 36° N 06:31:19 10° NNE
USA 234 4.1 06:28:20 44° NW 06:28:20 44° NW 06:32:33 10° NW
Lacrosse 5 4.5 06:57:57 14° NE 06:57:57 14° NE 06:58:40 10° NE
ATLAS 5 CENTAUR R/B 4.1 06:48:56 10° N 06:53:53 27° NE 06:54:21 27° ENE
Cosmos 2333 Rocket 4.0 06:49:12 10° NNW 06:51:37 26° NNW 06:51:37 26° NNW
Resurs 1-4 Rocket 4.3 07:01:34 10° NE 07:03:26 18° ENE 07:03:26 18° ENE
Cosmos 2297 Rocket 3.6 07:18:52 34° NNE 07:18:52 34° NNE 07:22:00 10° NNE
NOSS 3-1 (C) 4.4 07:12:06 10° NNW 07:18:38 63° NW 07:18:38 63° NW
Cosmos 2227 Rocket 3.5 07:29:32 36° NNE 07:29:32 36° NNE 07:32:48 10° NNE
Cosmos 2237 Rocket 3.5 07:22:28 10° N 07:26:22 36° NNE 07:26:22 36° NNE
USA 229 DEB 4.1 07:23:59 10° NNW 07:30:34 70° N 07:30:34 70° N
USA 229 4.1 07:24:05 10° NNW 07:30:42 70° N 07:30:42 70° N
CZ-2D R/B 3.4 07:38:58 10° NNE 07:42:21 37° NE 07:42:21 37° NE
ADEOS II 3.9 07:41:42 10° NE 07:44:45 23° ENE 07:44:45 23° ENE
SL-16 R/B 4.2 07:47:09 10° N 07:51:33 23° ENE 07:53:48 18° E
NOSS 3-1 (A) 4.1 07:44:01 10° NNW 07:51:23 74° WNW 07:51:23 74° WNW
Cosmos 2263 Rocket 4.2 07:54:29 19° E 07:54:29 19° E 07:57:46 10° NE
Cosmos 2344 4.1 08:04:50 42° ESE 08:05:08 42° ESE 08:12:00 10° NE
Cosmos 2219 4.5 08:16:32 32° NW 08:16:32 32° NW 08:20:34 10° N
Cosmos 2251 Rocket 4.3 08:36:33 45° NNW 08:36:33 45° NNW 08:40:31 10° N
Cosmos 2082 4.3 08:36:22 49° NW 08:36:22 49° NW 08:41:08 10° N
IDEFIX/ARIANE 42P 3.4 08:31:34 10° NNE 08:36:25 43° E 08:36:25 43° E
Lacrosse 5 3.6 08:37:08 23° NW 08:37:08 23° NW 08:40:59 10° NNE
ATLAS 5 CENTAUR R/B 3.6 08:32:47 10° NW 08:35:47 30° WNW 08:35:47 30° WNW
Cosmos 2184 Rocket 4.2 08:44:11 56° WNW 08:44:11 56° WNW 08:49:52 10° N
SL-16 R/B 2.7 08:45:15 57° WNW 08:45:15 57° WNW 08:50:32 10° NNW
Resurs 1-4 Rocket 3.3 08:40:53 10° N 08:44:30 30° NW 08:44:30 30° NW
USA 215 3.9 08:41:00 10° ENE 08:47:01 39° SE 08:47:58 37° SE
Cosmos 1733 Rocket 4.4 08:50:26 33° NNW 08:50:26 33° NNW 08:53:05 10° N
Cosmos 1295 Rocket 4.3 08:49:06 79° S 08:49:30 88° E 08:55:39 10° N
Cosmos 2154 Rocket 3.8 08:50:41 76° W 08:50:49 77° W 08:57:02 10° N
Cosmos 1190 Rocket 4.4 08:51:32 56° ESE 08:51:40 56° ESE 08:56:50 10° NNE
SL-8 R/B 4.4 08:53:11 49° N 08:53:11 49° N 08:57:20 10° NE
Cosmos 1140 Rocket 3.5 08:54:55 77° E 08:54:55 77° E 09:00:01 10° NNE
Cosmos 2297 Rocket 4.5 09:00:40 11° WNW 09:01:03 11° NW 09:02:46 10° NW
Meteor 1-21 4.5 08:58:03 10° N 09:03:49 67° E 09:05:53 40° SSE
MSX 4.0 09:03:00 10° NNE 09:08:43 67° ESE 09:10:10 49° SSE
Okean 2 3.8 09:05:26 10° N 09:09:08 63° NE 09:09:08 63° NE
Cosmos 2237 Rocket 4.3 09:07:29 10° NW 09:08:08 12° WNW 09:08:08 12° WNW
Cosmos 2227 Rocket 4.3 09:11:21 12° WNW 09:11:48 12° NW 09:14:07 10° NNW
ARIANE 5 R/B 3.4 09:08:49 10° NNE 09:13:46 45° E 09:15:40 32° SSE
Meteor 1-28 Rocket 4.4 09:16:25 34° NNW 09:16:25 34° NNW 09:18:37 10° NNW
ADEOS Rocket 3.4 09:16:08 40° WNW 09:16:08 40° WNW 09:20:33 10° NNW
Milstar 3 3.5 09:15:44 34° S 09:16:23 35° SSE 09:22:19 10° E
CZ-2D R/B 4.1 09:20:47 10° NNW 09:23:40 15° WNW 09:23:40 15° WNW
Cosmos 1782 Rocket 3.9 09:23:30 52° SE 09:24:14 61° E 09:28:32 10° NNE
ADEOS II 3.1 09:21:06 10° N 09:25:39 31° WNW 09:25:40 31° WNW
SL-8 Rocket 4.0 09:24:58 36° S 09:27:42 80° E 09:33:52 10° N
Cosmos 2227 4.2 09:27:45 54° WSW 09:28:52 67° WNW 09:34:28 10° NNE
IRS-1D 4.1 09:24:30 10° N 09:29:04 37° WNW 09:29:10 37° WNW
Cosmos 2366 rocket 4.3 09:26:46 26° S 09:30:29 68° E 09:36:48 10° NNE
Delta 142 4.3 09:29:32 50° SW 09:30:34 57° S 09:35:38 10° ESE
CZ-3 R/B 4.5 09:15:05 28° SSW 09:31:41 43° SSE 09:42:44 10° E
NOSS 3-3 (A) 4.2 09:32:01 41° W 09:33:25 49° NW 09:39:24 10° NNE
ATLAS CENTAUR R/B 1.3 09:33:49 59° NNW 09:33:49 59° NNW 09:37:18 10° NNE
NOSS 3-3 (C) 4.1 09:32:09 41° W 09:33:31 49° NW 09:39:30 10° NNE
Cosmos 676 Rocket 4.0 09:32:40 46° S 09:34:17 85° ESE 09:39:38 10° NNE
IRS-1C 4.0 09:29:18 10° NNE 09:34:38 86° WNW 09:36:27 44° SSW
Iridium 4 Rocket 4.1 09:29:28 10° NNW 09:34:47 44° W 09:35:32 42° WSW
SL-16 R/B 2.6 09:30:30 10° NW 09:35:34 41° W 09:35:34 41° W
Cosmos 2263 Rocket 2.6 09:36:11 40° W 09:37:21 46° WNW 09:42:48 10° N
Iridium 45 4.4 09:38:41 88° ESE 09:38:42 88° E 09:42:12 10° N
Cosmos 407 Rocket 4.4 09:41:19 31° W 09:42:00 32° WNW 09:46:44 10° N
Cosmos 1707 3.0 09:41:47 10° NNW 09:45:07 49° WNW 09:45:07 49° WNW
Spot 1 3.9 09:47:00 27° SSE 09:49:17 90° NE 09:53:24 10° NNW
CZ-4C R/B 3.3 09:43:19 10° NNW 09:51:04 74° ENE 09:59:41 10° SE
ALOS 3.9 09:47:43 10° NE 09:51:51 31° E 09:55:58 10° SSE
Delta 128 3.9 09:51:46 42° SSW 09:52:32 47° S 09:57:14 10° ESE
Cosmos 2341 Rocket 4.3 09:51:38 33° SW 09:53:55 46° W 09:59:53 10° N
Cosmos 1733 3.5 09:52:52 30° SSE 09:54:37 65° E 09:58:26 10° NNE
Cosmos 2218 Rocket 4.0 09:52:26 26° SSW 09:56:14 72° W 10:02:34 10° N
Cosmos 1766 4.0 09:54:23 19° SSE 09:56:51 49° E 10:00:37 10° NNE
SL-08 R/B 3.6 09:52:12 10° SSE 09:57:05 72° ENE 10:02:02 10° N
In-Cosmos 22 4.2 09:52:49 10° NNW 09:58:31 61° W 10:02:30 20° S
Cosmos 1300 Rocket 3.6 10:01:45 20° S 10:04:37 76° E 10:08:58 10° N
Meteor 1-15 Rocket 4.4 10:00:39 14° S 10:05:51 79° E 10:11:46 10° N
Cosmos 1727 Rocket 4.5 10:02:06 10° N 10:08:17 62° E 10:14:29 10° SSE
Cosmos 1844 4.4 10:07:35 11° S 10:12:48 51° ESE 10:18:10 10° NNE
Cosmos 1975 Rocket 2.9 10:10:35 10° N 10:14:57 71° W 10:19:12 10° S
Cosmos 1943 3.2 10:09:42 10° NNW 10:15:26 89° WSW 10:21:07 10° SSE
IDEFIX/ARIANE 42P 4.1 10:12:12 10° NNW 10:15:41 18° WNW 10:17:13 16° W
Cosmos 1340 2.6 10:13:39 10° NNW 10:17:19 58° W 10:20:00 17° S
Cosmos 1400 Rocket 3.0 10:16:10 29° SW 10:17:46 49° W 10:21:34 10° N
CZ-3B R/B 3.5 10:12:03 20° WSW 10:19:06 47° S 10:24:13 10° ESE
CZ-2C R/B 2.2 10:14:53 10° N 10:19:27 74° WNW 10:23:06 16° SSW
Cosmos 1626 2.0 10:17:40 10° N 10:21:22 89° WNW 10:25:02 10° S
Cosmos 1315 Rocket 3.8 10:21:29 10° S 10:25:25 48° E 10:29:22 10° NNE
Cosmos 1674 3.3 10:24:11 10° NNW 10:27:43 36° W 10:30:00 18° SSW
USA 215 3.8 10:23:47 10° NNE 10:30:00 49° NW 10:35:19 14° WSW
PSLV R/B 3.6 10:33:14 10° NNE 10:37:32 82° ESE 10:41:45 10° S
Cosmos 1850 Rocket 4.1 10:33:53 12° SSW 10:38:42 65° WNW 10:43:57 10° N
METEOR-M 4.3 10:35:15 10° NNE 10:40:35 76° E 10:45:55 10° S
ASTRO E2 2.6 10:40:22 13° W 10:43:49 74° S 10:47:47 10° E
Cosmos 468 Rocket 4.1 10:42:30 10° NNW 10:47:48 86° ENE 10:53:01 10° SSE
Iridium 51 4.5 10:45:19 10° SSW 10:48:35 39° W 10:51:50 10° NNW
Cosmos 1025 Rocket 3.2 10:44:28 10° NNW 10:48:39 51° W 10:52:52 10° S
Meteor 2-5 Rocket 4.0 10:43:09 10° N 10:49:05 81° E 10:54:52 10° S
Cosmos 1821 Rocket 4.0 10:43:06 10° SSW 10:49:11 62° W 10:55:14 10° N
Cosmos 44 3.6 10:45:49 10° NW 10:50:36 42° WSW 10:55:05 10° S
Cosmos 1844 Rocket 2.9 10:45:26 10° SW 10:50:55 56° WNW 10:56:29 10° N
ARIANE 5 R/B 4.1 10:49:00 10° NNW 10:52:27 18° WNW 10:55:55 10° WSW
Okean 2 Rocket 3.9 10:55:05 10° SW 10:59:08 33° W 11:03:14 10° NNW
Aureole 1 Rocket 3.7 10:55:05 10° SSW 10:59:53 85° WNW 11:06:21 10° NNE
FENGYUN 3A 4.2 10:55:59 10° N 11:01:04 43° WNW 11:06:07 10° SW
CZ-2C R/B 3.9 10:59:13 10° NNW 11:02:18 25° WNW 11:05:25 10° SW
Cosmos 1603 4.4 10:57:54 10° NW 11:02:47 31° WSW 11:07:39 10° SSW
BREEZE M DEB (TANK) 2.3 11:01:12 10° SW 11:07:22 77° NW 11:09:57 10° NE
DNEPR-1 R/B 4.3 11:02:26 10° SW 11:08:10 53° WNW 11:12:57 10° NNE
MOS 1 Rocket 3.6 11:03:59 10° S 11:08:49 56° W 11:13:58 10° NNW
Cosmos 1758 3.4 11:06:40 10° S 11:10:36 83° E 11:14:34 10° N
Cosmos 1867 3.7 11:05:48 10° SW 11:11:09 63° WNW 11:16:35 10° NNE
